EW5833 Weather Reports


Display with metric or nautical units.
time (UTC)temp
F
wind
direction
speed
MPH
gust
MPH
rain 1hr
in
rain 24hr
in
rain mn
in
humidity
%
barometer
mb
20260507182150 51 343 4.0 11.0 0.00 0.00 0.00 44 1010.9
20260507181702 51 343 4.0 11.0 0.00 0.00 0.00 44 1010.9
20260507180702 51 304 4.0 10.0 0.00 0.00 0.00 45 1010.8
20260507175704 53 116 2.0 6.0 0.00 0.00 0.00 48 1010.8
20260507175143 52 184 3.0 9.0 0.00 0.00 0.00 47 1010.8
20260507174702 52 184 3.0 9.0 0.00 0.00 0.00 47 1010.8
20260507174619 52 321 3.0 11.0 0.00 0.00 0.00 45 1011.0
20260507173703 52 321 3.0 11.0 0.00 0.00 0.00 45 1011.0
20260507172702 52 293 4.0 12.0 0.00 0.00 0.00 46 1011.1
20260507172642 52 331 4.0 13.0 0.00 0.00 0.00 48 1011.0
20260507171702 52 331 4.0 13.0 0.00 0.00 0.00 48 1011.0
20260507171150 52 324 4.0 11.0 0.00 0.00 0.00 46 1011.2
20260507170702 52 324 4.0 11.0 0.00 0.00 0.00 46 1011.2
20260507165702 53 236 3.0 10.0 0.00 0.00 0.00 46 1011.2
20260507164703 52 288 3.0 10.0 0.00 0.00 0.00 47 1011.1
20260507164632 51 285 4.0 11.0 0.00 0.00 0.00 47 1011.1
20260507163703 51 285 4.0 11.0 0.00 0.00 0.00 47 1011.1
20260507162702 51 213 2.0 8.0 0.00 0.00 0.00 48 1011.3
20260507161702 52 285 5.0 11.0 0.00 0.00 0.00 44 1011.2
20260507160702 51 0 4.0 12.0 0.00 0.00 0.00 47 1011.2
20260507160148 52 317 3.0 9.0 0.00 0.00 0.00 46 1011.2
20260507155704 52 317 3.0 9.0 0.00 0.00 0.00 46 1011.2
20260507155151 52 291 2.0 9.0 0.00 0.00 0.00 44 1011.1
20260507154703 52 291 2.0 9.0 0.00 0.00 0.00 44 1011.1
20260507153704 52 0 2.0 8.0 0.00 0.00 0.00 48 1011.2
20260507152702 51 256 3.0 11.0 0.00 0.00 0.00 45 1011.0
20260507151706 53 239 1.0 6.0 0.00 0.00 0.00 46 1011.0
20260507150703 52 282 2.0 8.0 0.00 0.00 0.00 46 1011.1
20260507150201 53 332 2.0 11.0 0.00 0.00 0.00 47 1011.1
20260507145702 53 332 2.0 11.0 0.00 0.00 0.00 47 1011.1
20260507144702 53 266 2.0 8.0 0.00 0.00 0.00 45 1011.2
20260507143701 52 324 2.0 6.0 0.00 0.00 0.00 49 1011.2
20260507142702 53 0 2.0 9.0 0.00 0.00 0.00 47 1011.2
20260507142145 52 338 2.0 9.0 0.00 0.00 0.00 47 1011.2
20260507141913 52 338 2.0 9.0 0.00 0.00 0.00 47 1011.2
20260507140701 52 162 2.0 5.0 0.00 0.00 0.00 46 1011.3
20260507135701 52 256 2.0 8.0 0.00 0.00 0.00 48 1011.4
20260507134702 51 302 4.0 10.0 0.00 0.00 0.00 49 1011.5
20260507133702 51 301 2.0 8.0 0.00 0.00 0.00 49 1011.5
20260507133133 51 132 1.0 5.0 0.00 0.00 0.00 52 1011.4
20260507132912 51 132 1.0 5.0 0.00 0.00 0.00 52 1011.4
20260507132148 50 230 2.0 6.0 0.00 0.00 0.00 51 1011.4
20260507131912 50 230 2.0 6.0 0.00 0.00 0.00 51 1011.4
20260507130701 50 313 1.0 6.0 0.00 0.00 0.00 51 1011.4
20260507130619 49 0 2.0 8.0 0.00 0.00 0.00 52 1011.3
20260507125912 49 0 2.0 8.0 0.00 0.00 0.00 52 1011.3
20260507124701 49 308 1.0 5.0 0.00 0.00 0.00 51 1011.3
20260507123702 48 215 1.0 4.0 0.00 0.00 0.00 56 1011.4
20260507123148 47 319 2.0 6.0 0.00 0.00 0.00 57 1011.5
20260507122914 47 319 2.0 6.0 0.00 0.00 0.00 57 1011.5
20260507122148 47 328 0.0 3.0 0.00 0.00 0.00 59 1011.6
20260507121914 47 328 0.0 3.0 0.00 0.00 0.00 59 1011.6
20260507121237 40 0 0.0 0.0 0.00 0.00 0.00 87 1011.6
20260507121051 42 60 0.0 2.0 0.00 0.00 0.00 80 1011.6
20260507120742 46 0 0.0 2.0 0.00 0.00 0.00 69 1011.6
20260507114914 40 0 0.0 0.0 0.00 0.00 0.00 87 1011.6
20260507114143 37 0 0.0 0.0 0.00 0.00 0.00 92 1011.5
20260507113916 37 0 0.0 0.0 0.00 0.00 0.00 92 1011.5
20260507113142 36 0 0.0 0.0 0.00 0.00 0.00 94 1011.5
20260507112914 36 0 0.0 0.0 0.00 0.00 0.00 94 1011.5
20260507111702 35 0 0.0 0.0 0.00 0.00 0.00 95 1011.4
20260507110702 35 0 0.0 0.0 0.00 0.00 0.00 97 1011.4
20260507105701 34 0 0.0 0.0 0.00 0.00 0.00 97 1011.3
20260507105149 34 0 0.0 0.0 0.00 0.00 0.00 97 1011.2
20260507104913 34 0 0.0 0.0 0.00 0.00 0.00 97 1011.2
20260507103702 34 0 0.0 0.0 0.00 0.00 0.00 97 1011.1
20260507102700 34 0 0.0 0.0 0.00 0.00 0.00 96 1011.1
20260507102147 34 0 0.0 0.0 0.00 0.01 0.00 96 1011.2
20260507101701 34 0 0.0 0.0 0.00 0.01 0.00 96 1011.2
20260507101624 34 0 0.0 0.0 0.00 0.01 0.00 95 1011.2
20260507100702 34 0 0.0 0.0 0.00 0.01 0.00 95 1011.2
20260507095701 35 0 0.0 0.0 0.00 0.01 0.00 96 1011.2
20260507095147 35 0 0.0 0.0 0.00 0.01 0.00 95 1011.2
20260507094913 35 0 0.0 0.0 0.00 0.01 0.00 95 1011.2
20260507094145 35 0 0.0 0.0 0.00 0.01 0.00 95 1011.2
20260507093702 35 0 0.0 0.0 0.00 0.01 0.00 95 1011.2
20260507093628 35 0 0.0 0.0 0.00 0.01 0.00 94 1011.2
20260507092701 35 0 0.0 0.0 0.00 0.01 0.00 94 1011.2
20260507092146 35 0 0.0 0.0 0.00 0.01 0.00 94 1011.3
20260507091913 35 0 0.0 0.0 0.00 0.01 0.00 94 1011.3
20260507090701 35 0 0.0 0.0 0.00 0.01 0.00 94 1011.4
20260507090140 35 0 0.0 0.0 0.00 0.01 0.00 94 1011.5
20260507085913 35 0 0.0 0.0 0.00 0.01 0.00 94 1011.5
20260507085140 35 0 0.0 0.0 0.00 0.01 0.00 94 1011.5
20260507084915 35 0 0.0 0.0 0.00 0.01 0.00 94 1011.5
20260507084358 35 0 0.0 0.0 0.00 0.01 0.00 93 1011.5
20260507084238 35 0 0.0 0.0 0.00 0.01 0.00 93 1011.5
20260507082701 35 0 0.0 0.0 0.00 0.01 0.00 93 1011.4
20260507081705 35 0 0.0 0.0 0.00 0.01 0.00 93 1011.4
20260507081142 35 0 0.0 0.0 0.00 0.01 0.00 91 1011.5
20260507080914 35 0 0.0 0.0 0.00 0.01 0.00 91 1011.5
20260507080147 35 0 0.0 1.0 0.00 0.01 0.00 91 1011.4
20260507075912 35 0 0.0 1.0 0.00 0.01 0.00 91 1011.4
20260507075145 35 0 0.0 0.0 0.00 0.01 0.00 89 1011.5
20260507074703 35 0 0.0 0.0 0.00 0.01 0.00 89 1011.5
20260507074137 36 0 0.0 0.0 0.00 0.01 0.00 89 1011.5
20260507073914 36 0 0.0 0.0 0.00 0.01 0.00 89 1011.5
20260507072703 36 0 0.0 1.0 0.00 0.01 0.00 87 1011.5
20260507071702 37 0 0.0 0.0 0.00 0.01 0.00 85 1011.5
20260507071357 37 0 0.0 0.0 0.00 0.01 0.00 82 1011.6
20260507071243 37 0 0.0 0.0 0.00 0.01 0.00 82 1011.6
20260507065702 38 0 0.0 0.0 0.00 0.01 0.00 81 1011.6
20260507065200 38 0 0.0 0.0 0.00 0.01 0.00 77 1011.6
20260507064701 38 0 0.0 0.0 0.00 0.01 0.00 77 1011.6
20260507063703 39 0 0.0 1.0 0.00 0.01 0.00 75 1011.6
20260507063152 40 0 0.0 0.0 0.00 0.01 0.00 72 1011.6
20260507062701 40 0 0.0 0.0 0.00 0.01 0.00 72 1011.6
20260507061701 41 0 0.0 0.0 0.00 0.01 0.00 69 1011.7
20260507061144 42 345 0.0 1.0 0.00 0.01 0.00 67 1011.7
20260507060701 42 345 0.0 1.0 0.00 0.01 0.00 67 1011.7
20260507055701 43 0 0.0 3.0 0.00 0.01 0.00 64 1011.6
20260507055143 43 344 0.0 3.0 0.00 0.01 0.00 62 1011.6
20260507054701 43 344 0.0 3.0 0.00 0.01 0.00 62 1011.6
20260507054140 44 0 0.0 2.0 0.00 0.01 0.00 60 1011.7
20260507053911 44 0 0.0 2.0 0.00 0.01 0.00 60 1011.7
20260507053146 45 0 0.0 3.0 0.00 0.01 0.00 58 1011.7
20260507052703 45 0 0.0 3.0 0.00 0.01 0.00 58 1011.7
20260507051703 45 326 0.0 3.0 0.00 0.01 0.00 57 1011.7
20260507051154 46 307 1.0 4.0 0.00 0.01 0.00 56 1011.7
20260507050915 46 307 1.0 4.0 0.00 0.01 0.00 56 1011.7
20260507045702 45 0 0.0 4.0 0.00 0.01 0.00 56 1011.7
20260507044701 44 307 0.0 3.0 0.00 0.01 0.00 58 1011.7
20260507044148 44 0 0.0 0.0 0.00 0.01 0.00 65 1011.8
20260507043702 44 0 0.0 0.0 0.00 0.01 0.00 65 1011.8
20260507042701 44 0 0.0 0.0 0.00 0.01 0.00 64 1011.7
20260507041700 44 0 0.0 0.0 0.00 0.01 0.00 63 1011.8
20260507040701 44 0 0.0 0.0 0.00 0.01 0.00 67 1011.7
20260507035701 44 0 0.0 0.0 0.00 0.01 0.01 67 1011.7
20260507034701 44 0 0.0 0.0 0.00 0.01 0.01 66 1011.8
20260507034630 44 0 0.0 0.0 0.00 0.01 0.01 67 1011.9
20260507033702 44 0 0.0 0.0 0.00 0.01 0.01 67 1011.9
20260507032702 45 0 0.0 0.0 0.00 0.01 0.01 67 1011.9
20260507031701 45 0 0.0 0.0 0.00 0.01 0.01 68 1011.9
20260507030701 45 0 0.0 0.0 0.00 0.01 0.01 71 1012.0
20260507025701 45 0 0.0 1.0 0.00 0.01 0.01 69 1012.0
20260507025146 45 0 0.0 0.0 0.00 0.01 0.01 68 1012.0
20260507024702 45 0 0.0 0.0 0.00 0.01 0.01 68 1012.0
20260507023702 45 0 0.0 0.0 0.00 0.01 0.01 68 1011.9
20260507022701 45 0 0.0 0.0 0.00 0.01 0.01 68 1012.0
20260507021700 45 0 0.0 0.0 0.00 0.01 0.01 70 1011.9
20260507020701 45 0 0.0 0.0 0.00 0.01 0.01 70 1011.8
20260507020136 45 0 0.0 0.0 0.00 0.01 0.01 69 1011.7
20260507015914 45 0 0.0 0.0 0.00 0.01 0.01 69 1011.7
20260507014701 46 0 0.0 0.0 0.00 0.01 0.01 67 1011.8
20260507013702 46 0 0.0 0.0 0.00 0.01 0.01 67 1011.6
20260507012700 46 0 0.0 1.0 0.00 0.01 0.01 67 1011.6
20260507011702 46 0 0.0 0.0 0.00 0.01 0.01 65 1011.5
20260507011139 47 0 0.0 0.0 0.00 0.01 0.01 64 1011.7
20260507010959 47 0 0.0 0.0 0.00 0.01 0.01 58 1011.6
20260507010914 47 0 0.0 0.0 0.00 0.01 0.01 64 1011.7
20260507010240 47 0 0.0 0.0 0.00 0.01 0.01 58 1011.6
20260507005140 47 0 0.0 0.0 0.00 0.01 0.01 58 1011.6
20260507004701 47 0 0.0 0.0 0.00 0.01 0.01 58 1011.6
20260507004145 48 0 0.0 0.0 0.00 0.01 0.01 55 1011.6
20260507003914 48 0 0.0 0.0 0.00 0.01 0.01 55 1011.6
20260507002702 48 0 0.0 1.0 0.00 0.01 0.01 53 1011.5
20260507002146 49 0 0.0 0.0 0.00 0.01 0.01 51 1011.5
20260507001911 49 0 0.0 0.0 0.00 0.01 0.01 51 1011.5
20260507001629 49 0 0.0 0.0 0.00 0.01 0.01 52 1011.5
20260507000701 49 0 0.0 0.0 0.00 0.01 0.01 52 1011.5
20260506235703 49 0 0.0 4.0 0.00 0.01 0.01 51 1011.4
20260506234702 49 0 1.0 5.0 0.00 0.01 0.01 51 1011.3
20260506234150 50 152 0.0 3.0 0.00 0.00 0.00 49 1011.3
20260506233913 50 152 0.0 3.0 0.00 0.00 0.00 49 1011.3
20260506232703 50 292 0.0 8.0 0.00 0.00 0.00 49 1011.3
20260506231703 50 254 1.0 8.0 0.00 0.00 0.00 47 1011.2
20260506231138 51 242 1.0 6.0 0.00 0.00 0.00 49 1011.2
20260506230702 51 242 1.0 6.0 0.00 0.00 0.00 49 1011.2
20260506230356 51 0 0.0 6.0 0.00 0.00 0.00 48 1011.2
20260506230236 51 0 0.0 6.0 0.00 0.00 0.00 48 1011.2
20260506225145 51 0 1.0 6.0 0.00 0.00 0.00 48 1011.3
20260506224701 51 0 1.0 6.0 0.00 0.00 0.00 48 1011.3
20260506223705 51 277 0.0 4.0 0.00 0.00 0.00 48 1011.4
20260506223701 51 277 0.0 4.0 0.00 0.00 0.00 48 1011.4
20260506223142 51 268 1.0 5.0 0.00 0.00 0.00 47 1011.5
20260506222957 50 232 2.0 7.0 0.00 0.00 0.00 46 1011.5
20260506222701 51 268 1.0 5.0 0.00 0.00 0.00 47 1011.5
20260506222242 50 232 2.0 7.0 0.00 0.00 0.00 46 1011.5
20260506221137 51 277 2.0 6.0 0.00 0.00 0.00 47 1011.4
20260506220908 51 292 2.0 6.0 0.00 0.00 0.00 47 1011.4
20260506215702 51 0 1.0 6.0 0.00 0.00 0.00 46 1011.4
20260506215658 51 0 1.0 6.0 0.00 0.00 0.00 46 1011.4
20260506214702 51 0 1.0 6.0 0.00 0.00 0.00 46 1011.3
20260506214658 51 0 1.0 6.0 0.00 0.00 0.00 46 1011.3
20260506214155 50 244 2.0 6.0 0.00 0.00 0.00 46 1011.3
20260506213657 50 244 2.0 6.0 0.00 0.00 0.00 46 1011.3
20260506212704 50 0 2.0 9.0 0.00 0.00 0.00 47 1011.3
20260506212700 50 0 2.0 9.0 0.00 0.00 0.00 47 1011.3
20260506212140 50 0 2.0 7.0 0.00 0.00 0.00 48 1011.3
20260506211910 50 0 2.0 7.0 0.00 0.00 0.00 48 1011.3
20260506211157 50 321 2.0 8.0 0.00 0.00 0.00 46 1011.3
20260506210657 50 0 2.0 8.0 0.00 0.00 0.00 46 1011.3
20260506210137 51 301 1.0 7.0 0.00 0.00 0.00 46 1011.3
20260506205656 51 0 1.0 7.0 0.00 0.00 0.00 46 1011.3
20260506204655 52 0 1.0 4.0 0.00 0.00 0.00 46 1011.3
20260506204141 52 302 2.0 7.0 0.00 0.00 0.00 47 1011.2
20260506203908 52 302 2.0 7.0 0.00 0.00 0.00 47 1011.2
20260506202656 51 0 2.0 9.0 0.00 0.00 0.00 49 1011.2
20260506201654 51 319 2.0 9.0 0.00 0.00 0.00 47 1011.4
20260506201609 51 275 3.0 10.0 0.00 0.00 0.00 47 1011.4
20260506200654 51 275 3.0 10.0 0.00 0.00 0.00 47 1011.4
20260506200139 51 79 2.0 7.0 0.00 0.00 0.00 47 1011.4
20260506195906 51 79 2.0 7.0 0.00 0.00 0.00 47 1011.4
20260506194653 51 0 2.0 9.0 0.00 0.00 0.00 47 1011.4
20260506193651 50 325 2.0 8.0 0.00 0.00 0.00 48 1011.5
20260506193131 50 221 4.0 9.0 0.00 0.00 0.00 47 1011.6
20260506192859 50 221 4.0 9.0 0.00 0.00 0.00 47 1011.6
20260506191649 50 43 2.0 11.0 0.00 0.00 0.00 49 1011.6
20260506190647 50 317 2.0 11.0 0.00 0.00 0.00 47 1011.5
20260506185648 51 355 4.0 9.0 0.00 0.00 0.00 45 1011.4
20260506184648 50 271 3.0 10.0 0.00 0.00 0.00 47 1011.3
20260506183650 49 259 2.0 7.0 0.00 0.00 0.00 48 1011.5
20260506183620 49 339 2.0 9.0 0.00 0.00 0.00 49 1011.4
20260506182648 49 339 2.0 9.0 0.00 0.00 0.00 49 1011.4